Tracking 18852 objects as of 23-Nov-2017
HD Live streaming from Space Station
objects crossing your sky now

FENGYUN 1C DEB

Track FENGYUN 1C DEB now!
10-day predictions


NORAD ID: 33698
Int'l Code: 1999-025DGK
Perigee: 627.7 km
Apogee: 844.3 km
Inclination: 99.6 °
Period: 99.4 minutes
Semi major axis: 7106 km
RCS: 0.0004 m2 (small)
Launch date: May 10, 1999
Source: People's Republic of China (PRC)
Launch site: Taiyaun Space Center, China (TSC)

Note: This is SATELLITE DEBRIS
aabbcc
Your satellite tracking list
Your tracking list is empty




NASA's NSSDC Master Catalog

Two Line Element Set (TLE):
1 33698U 99025DGK 17324.81784279  .00000111  00000-0  40758-4 0  9998
2 33698  99.6306 184.1459 0152387 246.1849 112.3302 14.49029731532187
Source of the keplerian elements: AFSPC